Powrót do katalogu

STARLINK-31529

AktywnyŁącznośćVLEO
NORAD 59000·PAYLOAD·🇺🇸 United States

Wystrzelony Feb 23, 2024 z Vandenberg Space Force Base

Loading…

Następne Przeloty (najbliższe 24 godziny)

TLE

ŚwieżeSource: CelesTrak SupGP

Epoka: Sep 15, 2026, 02:04 UTC

1 59000C 24036C   26258.08659722  .00006484  00000+0  19154-3 0  2583
2 59000  53.1575 274.7132 0001278  94.0324 238.1588 15.34392199    10

Śledź STARLINK-31529 w czasie rzeczywistym z AllMySat

Download on the App Store